DYE307 LEBL-LIMC

Flight info

Callsign DYE307
Flight time 1h 34m
Altitude 30000
Route AGENA DCT BODEQ DCT LUMAS DCT UNANA DCT STP DCT RAPED DCT PIGOS DCT EKSID DCT NOSTA DCT EGHIN DCT ANAKI/N0334F180 P860 DEVOX
Aircraft A20N/M-SDE2E3FGHIRWXY/LB1

Departure

Time 2026-05-05 19:20
Airport Josep Tarradellas Barcelona-El Prat Airport (LEBL)

Arrival

Time 2026-05-05 20:54
Airport Milan Malpensa International Airport (LIMC)
Time Latitude Longitude Altitude Speed Heading
2026-05-05 18:54 41.28988 2.07900 17 ft 0 kts 336°
2026-05-05 19:09 41.28978 2.07905 16 ft 2 kts 336°
2026-05-05 19:09 41.28964 2.07913 16 ft 2 kts 336°
2026-05-05 19:10 41.28951 2.07921 16 ft 2 kts 336°
2026-05-05 19:10 41.28937 2.07929 17 ft 2 kts 336°
2026-05-05 19:10 41.28923 2.07937 16 ft 2 kts 345°
2026-05-05 19:10 41.28909 2.07938 18 ft 2 kts 34°
2026-05-05 19:11 41.28903 2.07933 16 ft 0 kts 64°
2026-05-05 19:13 41.28921 2.07980 16 ft 12 kts 64°
2026-05-05 19:13 41.28951 2.08097 16 ft 10 kts 100°
2026-05-05 19:13 41.28897 2.08157 18 ft 12 kts 152°
2026-05-05 19:14 41.28820 2.08205 16 ft 9 kts 158°
2026-05-05 19:14 41.28765 2.08229 16 ft 7 kts 169°
2026-05-05 19:14 41.28742 2.08233 16 ft 9 kts 174°
2026-05-05 19:14 41.28695 2.08252 16 ft 0 kts 143°
2026-05-05 19:15 41.28690 2.08280 16 ft 0 kts 79°
2026-05-05 19:15 41.28712 2.08318 18 ft 8 kts 46°
2026-05-05 19:15 41.28757 2.08404 18 ft 13 kts 64°
2026-05-05 19:15 41.28798 2.08534 18 ft 17 kts 68°
2026-05-05 19:16 41.28850 2.08693 18 ft 20 kts 66°
2026-05-05 19:16 41.28906 2.08852 16 ft 19 kts 64°
2026-05-05 19:16 41.28963 2.09020 18 ft 21 kts 66°
2026-05-05 19:16 41.29026 2.09200 17 ft 22 kts 65°
2026-05-05 19:17 41.29089 2.09384 17 ft 20 kts 66°
2026-05-05 19:17 41.29147 2.09560 17 ft 22 kts 65°
2026-05-05 19:17 41.29213 2.09746 17 ft 23 kts 65°
2026-05-05 19:17 41.29280 2.09930 17 ft 21 kts 58°
2026-05-05 19:18 41.29322 2.10100 17 ft 18 kts 99°
2026-05-05 19:18 41.29313 2.10143 16 ft 2 kts 108°
2026-05-05 19:18 41.29299 2.10194 18 ft 14 kts 112°
2026-05-05 19:18 41.29227 2.10287 15 ft 12 kts 193°
2026-05-05 19:19 41.29164 2.10161 15 ft 37 kts 247°
2026-05-05 19:19 41.28961 2.09564 17 ft 102 kts 246°
2026-05-05 19:19 41.28595 2.08496 24 ft 149 kts 245°
2026-05-05 19:19 41.28103 2.07322 579 ft 139 kts 224°
2026-05-05 19:20 41.27256 2.06691 1104 ft 145 kts 197°
2026-05-05 19:20 41.26212 2.06571 1515 ft 158 kts 186°
2026-05-05 19:20 41.25087 2.06478 1928 ft 169 kts 188°
2026-05-05 19:20 41.23840 2.06334 2243 ft 191 kts 188°
2026-05-05 19:21 41.22620 2.06302 2625 ft 212 kts 172°
2026-05-05 19:21 41.21237 2.07216 3027 ft 239 kts 137°
2026-05-05 19:21 41.20301 2.09135 3479 ft 261 kts 112°
2026-05-05 19:21 41.19599 2.11456 4063 ft 277 kts 111°
2026-05-05 19:22 41.18889 2.13856 4967 ft 280 kts 111°
2026-05-05 19:22 41.18176 2.16281 5868 ft 284 kts 111°
2026-05-05 19:22 41.17450 2.18745 6710 ft 289 kts 110°
2026-05-05 19:22 41.17125 2.21380 7521 ft 294 kts 85°
2026-05-05 19:23 41.17621 2.23976 8313 ft 298 kts 67°
2026-05-05 19:23 41.18427 2.26530 9118 ft 303 kts 64°
2026-05-05 19:23 41.19285 2.29104 9935 ft 307 kts 65°
2026-05-05 19:23 41.20154 2.31774 10378 ft 326 kts 66°
2026-05-05 19:24 41.21054 2.34652 10627 ft 349 kts 67°
2026-05-05 19:24 41.21979 2.37703 11094 ft 361 kts 68°
2026-05-05 19:24 41.22909 2.40819 11840 ft 365 kts 68°
2026-05-05 19:24 41.23850 2.43979 12578 ft 370 kts 68°
2026-05-05 19:25 41.24800 2.47178 13293 ft 375 kts 69°
2026-05-05 19:25 41.25765 2.50420 13954 ft 380 kts 69°
2026-05-05 19:25 41.26740 2.53702 14608 ft 384 kts 69°
2026-05-05 19:25 41.27727 2.57027 15219 ft 389 kts 69°
2026-05-05 19:26 41.28723 2.60388 15839 ft 393 kts 69°
2026-05-05 19:26 41.29732 2.63794 16443 ft 398 kts 70°
2026-05-05 19:26 41.30751 2.67241 17021 ft 403 kts 70°
2026-05-05 19:26 41.31781 2.70731 17610 ft 408 kts 70°
2026-05-05 19:27 41.32808 2.74214 18188 ft 412 kts 70°
2026-05-05 19:27 41.33861 2.77792 18657 ft 418 kts 70°
2026-05-05 19:27 41.34929 2.81422 19108 ft 424 kts 70°
2026-05-05 19:27 41.36010 2.85103 19565 ft 430 kts 71°
2026-05-05 19:28 41.37104 2.88833 20032 ft 435 kts 71°
2026-05-05 19:28 41.38209 2.92607 20479 ft 441 kts 71°
2026-05-05 19:28 41.39327 2.96429 20934 ft 446 kts 71°
2026-05-05 19:28 41.40458 3.00300 21396 ft 451 kts 71°
2026-05-05 19:29 41.41598 3.04212 21849 ft 456 kts 71°
2026-05-05 19:29 41.42751 3.08171 22287 ft 461 kts 71°
2026-05-05 19:29 41.43899 3.12118 22718 ft 465 kts 71°
2026-05-05 19:29 41.45071 3.16158 23153 ft 470 kts 72°
2026-05-05 19:30 41.46256 3.20248 23560 ft 475 kts 72°
2026-05-05 19:30 41.47449 3.24369 23957 ft 478 kts 72°
2026-05-05 19:30 41.48647 3.28516 24352 ft 481 kts 72°
2026-05-05 19:30 41.49853 3.32698 24732 ft 484 kts 72°
2026-05-05 19:31 41.51064 3.36906 25103 ft 487 kts 72°
2026-05-05 19:31 41.52282 3.41141 25476 ft 491 kts 72°
2026-05-05 19:31 41.53505 3.45404 25849 ft 493 kts 72°
2026-05-05 19:31 41.54613 3.49739 26203 ft 493 kts 79°
2026-05-05 19:32 41.55360 3.54140 26548 ft 494 kts 82°
2026-05-05 19:32 41.56093 3.58640 26892 ft 497 kts 82°
2026-05-05 19:32 41.56838 3.63160 27236 ft 500 kts 81°
2026-05-05 19:32 41.57586 3.67705 27574 ft 502 kts 81°
2026-05-05 19:33 41.58335 3.72268 27899 ft 504 kts 81°
2026-05-05 19:33 41.59083 3.76851 28232 ft 507 kts 81°
2026-05-05 19:33 41.59833 3.81462 28546 ft 509 kts 81°
2026-05-05 19:33 41.60590 3.86090 28847 ft 512 kts 79°
2026-05-05 19:34 41.61721 3.90562 29111 ft 519 kts 67°
2026-05-05 19:34 41.63499 3.94770 29384 ft 523 kts 55°
2026-05-05 19:34 41.65704 3.98641 29667 ft 525 kts 50°
2026-05-05 19:35 41.70322 4.06251 29888 ft 527 kts 51°
2026-05-05 19:35 41.74804 4.14006 29891 ft 526 kts 52°
2026-05-05 19:36 41.79200 4.21837 29890 ft 526 kts 53°
2026-05-05 19:36 41.83580 4.29689 29885 ft 526 kts 53°
2026-05-05 19:37 41.87929 4.37503 29884 ft 526 kts 53°
2026-05-05 19:37 41.92303 4.45379 29882 ft 526 kts 53°
2026-05-05 19:38 41.96674 4.53269 29887 ft 526 kts 53°
2026-05-05 19:38 42.01035 4.61162 29885 ft 526 kts 53°
2026-05-05 19:39 42.05391 4.69067 29888 ft 526 kts 53°
2026-05-05 19:39 42.09712 4.76929 29884 ft 526 kts 53°
2026-05-05 19:40 42.14063 4.84864 29885 ft 527 kts 53°
2026-05-05 19:40 42.18408 4.92812 29889 ft 527 kts 54°
2026-05-05 19:41 42.22752 5.00778 29890 ft 527 kts 54°
2026-05-05 19:41 42.27091 5.08756 29888 ft 527 kts 54°
2026-05-05 19:42 42.31419 5.16735 29890 ft 527 kts 54°
2026-05-05 19:42 42.35752 5.24744 29891 ft 527 kts 54°
2026-05-05 19:43 42.40078 5.32762 29889 ft 527 kts 54°
2026-05-05 19:43 42.44395 5.40785 29889 ft 528 kts 54°
2026-05-05 19:44 42.48683 5.48775 29890 ft 528 kts 54°
2026-05-05 19:44 42.52999 5.56838 29894 ft 528 kts 54°
2026-05-05 19:45 42.57306 5.64906 29887 ft 528 kts 54°
2026-05-05 19:45 42.61606 5.72985 29898 ft 528 kts 54°
2026-05-05 19:46 42.65898 5.81069 29898 ft 527 kts 54°
2026-05-05 19:46 42.70150 5.89099 29900 ft 527 kts 55°
2026-05-05 19:47 42.74423 5.97190 29908 ft 527 kts 55°
2026-05-05 19:47 42.78690 6.05292 29909 ft 526 kts 55°
2026-05-05 19:48 42.82950 6.13399 29921 ft 526 kts 55°
2026-05-05 19:48 42.87799 6.20813 29929 ft 525 kts 38°
2026-05-05 19:49 42.93407 6.27217 29932 ft 526 kts 38°
2026-05-05 19:49 42.98965 6.33601 29939 ft 526 kts 39°
2026-05-05 19:50 43.04556 6.40039 29930 ft 526 kts 39°
2026-05-05 19:50 43.10154 6.46500 29938 ft 526 kts 39°
2026-05-05 19:51 43.15750 6.52974 29938 ft 526 kts 39°
2026-05-05 19:51 43.21268 6.59579 29937 ft 527 kts 45°
2026-05-05 19:52 43.25771 6.67409 29940 ft 527 kts 55°
2026-05-05 19:52 43.30077 6.75548 29930 ft 527 kts 55°
2026-05-05 19:53 43.34382 6.83701 29935 ft 527 kts 55°
2026-05-05 19:53 43.38670 6.91858 29938 ft 528 kts 55°
2026-05-05 19:54 43.42960 7.00045 29935 ft 528 kts 55°
2026-05-05 19:54 43.47248 7.08250 29936 ft 528 kts 55°
2026-05-05 19:55 43.51535 7.16475 29937 ft 528 kts 55°
2026-05-05 19:55 43.55814 7.24710 29938 ft 528 kts 55°
2026-05-05 19:56 43.60059 7.32901 29938 ft 528 kts 56°
2026-05-05 19:56 43.64327 7.41160 29934 ft 528 kts 56°
2026-05-05 19:57 43.68589 7.49431 29944 ft 528 kts 56°
2026-05-05 19:57 43.72842 7.57707 29940 ft 528 kts 56°
2026-05-05 19:58 43.77057 7.65935 29945 ft 528 kts 56°
2026-05-05 19:58 43.81323 7.74195 29945 ft 527 kts 51°
2026-05-05 19:58 43.83858 7.77849 29946 ft 526 kts 39°
2026-05-05 19:59 43.86711 7.81022 29947 ft 526 kts 35°
2026-05-05 19:59 43.92541 7.87131 29954 ft 525 kts 36°
2026-05-05 20:00 43.98272 7.93392 29952 ft 524 kts 37°
2026-05-05 20:00 44.01103 7.96553 29682 ft 521 kts 37°
2026-05-05 20:00 44.03904 7.99700 29243 ft 515 kts 37°
2026-05-05 20:00 44.06677 8.02821 28735 ft 510 kts 37°
2026-05-05 20:01 44.09419 8.05912 28197 ft 504 kts 38°
2026-05-05 20:01 44.12127 8.08967 27669 ft 499 kts 38°
2026-05-05 20:01 44.14802 8.11989 27186 ft 492 kts 38°
2026-05-05 20:01 44.17451 8.14983 26642 ft 488 kts 38°
2026-05-05 20:02 44.20075 8.17950 26137 ft 483 kts 38°
2026-05-05 20:02 44.22666 8.20885 25685 ft 478 kts 38°
2026-05-05 20:02 44.25232 8.23793 25199 ft 473 kts 39°
2026-05-05 20:02 44.27771 8.26675 24715 ft 467 kts 39°
2026-05-05 20:03 44.30278 8.29524 24242 ft 462 kts 39°
2026-05-05 20:03 44.32743 8.32328 23770 ft 457 kts 39°
2026-05-05 20:03 44.35194 8.35121 23243 ft 452 kts 39°
2026-05-05 20:03 44.37623 8.37893 22663 ft 448 kts 39°
2026-05-05 20:04 44.40027 8.40639 22100 ft 444 kts 39°
2026-05-05 20:04 44.42413 8.43363 21528 ft 441 kts 38°
2026-05-05 20:04 44.44078 8.44957 21168 ft 437 kts 27°
2026-05-05 20:04 44.46909 8.46541 20631 ft 429 kts 10°
2026-05-05 20:05 44.49821 8.47258 20102 ft 423 kts
2026-05-05 20:05 44.52720 8.47782 19596 ft 418 kts
2026-05-05 20:05 44.55559 8.48310 19108 ft 415 kts
2026-05-05 20:05 44.58402 8.48898 18607 ft 412 kts
2026-05-05 20:06 44.61220 8.49530 18108 ft 408 kts
2026-05-05 20:06 44.64007 8.50183 17601 ft 404 kts
2026-05-05 20:06 44.66763 8.50841 17086 ft 400 kts
2026-05-05 20:06 44.69526 8.51506 16588 ft 395 kts
2026-05-05 20:07 44.72186 8.52146 16093 ft 391 kts
2026-05-05 20:07 44.74854 8.52789 15625 ft 387 kts
2026-05-05 20:07 44.77495 8.53425 15153 ft 383 kts
2026-05-05 20:07 44.80104 8.54053 14692 ft 379 kts
2026-05-05 20:08 44.82692 8.54676 14242 ft 375 kts
2026-05-05 20:08 44.85251 8.55292 13793 ft 371 kts
2026-05-05 20:08 44.87782 8.55903 13291 ft 368 kts
2026-05-05 20:08 44.90290 8.56507 12779 ft 364 kts
2026-05-05 20:09 44.92776 8.57107 12291 ft 361 kts
2026-05-05 20:09 44.95242 8.57703 11796 ft 358 kts
2026-05-05 20:09 44.97685 8.58294 11325 ft 355 kts
2026-05-05 20:09 45.00123 8.58569 10852 ft 350 kts 357°
2026-05-05 20:10 45.02499 8.58221 10650 ft 336 kts 347°
2026-05-05 20:10 45.04744 8.57579 10522 ft 323 kts 347°
2026-05-05 20:10 45.06919 8.56981 10401 ft 310 kts 347°
2026-05-05 20:10 45.09069 8.56397 10288 ft 297 kts 347°
2026-05-05 20:11 45.10981 8.55875 10115 ft 288 kts 347°
2026-05-05 20:11 45.12923 8.55340 10023 ft 285 kts 347°
2026-05-05 20:11 45.14894 8.54791 9986 ft 289 kts 347°
2026-05-05 20:11 45.16855 8.54246 9987 ft 285 kts 347°
2026-05-05 20:12 45.18766 8.53713 9977 ft 275 kts 347°
2026-05-05 20:12 45.20623 8.53199 9987 ft 275 kts 347°
2026-05-05 20:12 45.22534 8.52591 9985 ft 275 kts 336°
2026-05-05 20:12 45.24072 8.51174 9990 ft 268 kts 309°
2026-05-05 20:13 45.24972 8.48909 9995 ft 264 kts 281°
2026-05-05 20:13 45.25006 8.46373 9981 ft 255 kts 253°
2026-05-05 20:13 45.24195 8.44166 9988 ft 256 kts 228°
2026-05-05 20:13 45.22841 8.42548 9984 ft 255 kts 209°
2026-05-05 20:14 45.21208 8.41698 9949 ft 255 kts 189°
2026-05-05 20:14 45.19443 8.41759 9691 ft 256 kts 168°
2026-05-05 20:14 45.17714 8.42387 9359 ft 257 kts 167°
2026-05-05 20:14 45.15988 8.43015 9212 ft 255 kts 167°
2026-05-05 20:15 45.14275 8.43631 8986 ft 255 kts 167°
2026-05-05 20:15 45.12548 8.44242 8754 ft 255 kts 167°
2026-05-05 20:15 45.10888 8.45082 8486 ft 256 kts 150°
2026-05-05 20:15 45.09587 8.46790 8151 ft 258 kts 124°
2026-05-05 20:16 45.08941 8.49125 8048 ft 262 kts 100°
2026-05-05 20:16 45.09059 8.51715 7975 ft 267 kts 73°
2026-05-05 20:16 45.09981 8.53973 7973 ft 269 kts 46°
2026-05-05 20:16 45.11526 8.55443 7964 ft 271 kts 19°
2026-05-05 20:17 45.13373 8.55788 7969 ft 269 kts 351°
2026-05-05 20:17 45.15193 8.55204 7978 ft 268 kts 343°
2026-05-05 20:17 45.16967 8.54551 7988 ft 267 kts 343°
2026-05-05 20:17 45.18770 8.53893 7993 ft 268 kts 343°
2026-05-05 20:18 45.20567 8.53246 7981 ft 265 kts 344°
2026-05-05 20:18 45.22311 8.52422 7986 ft 265 kts 327°
2026-05-05 20:18 45.23630 8.50665 7988 ft 261 kts 298°
2026-05-05 20:18 45.24204 8.48281 7986 ft 256 kts 271°
2026-05-05 20:19 45.23948 8.45831 7988 ft 252 kts 245°
2026-05-05 20:19 45.22971 8.43847 7986 ft 250 kts 219°
2026-05-05 20:19 45.21461 8.42671 7984 ft 250 kts 194°
2026-05-05 20:19 45.19734 8.42571 7983 ft 252 kts 169°
2026-05-05 20:20 45.18025 8.43177 7994 ft 254 kts 166°
2026-05-05 20:20 45.16324 8.43803 7963 ft 251 kts 167°
2026-05-05 20:20 45.14642 8.44408 7981 ft 254 kts 167°
2026-05-05 20:20 45.12930 8.45015 7975 ft 251 kts 167°
2026-05-05 20:21 45.11300 8.45860 7978 ft 252 kts 149°
2026-05-05 20:21 45.10061 8.47581 7966 ft 259 kts 122°
2026-05-05 20:21 45.09500 8.49998 7965 ft 263 kts 94°
2026-05-05 20:21 45.09815 8.52546 7968 ft 268 kts 65°
2026-05-05 20:22 45.10957 8.54607 7963 ft 270 kts 36°
2026-05-05 20:22 45.12662 8.55674 7965 ft 270 kts
2026-05-05 20:22 45.14513 8.55507 7971 ft 268 kts 344°
2026-05-05 20:22 45.16316 8.54844 7980 ft 267 kts 343°
2026-05-05 20:23 45.18111 8.54164 7984 ft 267 kts 343°
2026-05-05 20:23 45.19911 8.53494 7989 ft 268 kts 343°
2026-05-05 20:23 45.21698 8.52814 7982 ft 265 kts 337°
2026-05-05 20:23 45.23221 8.51409 7987 ft 262 kts 309°
2026-05-05 20:24 45.24091 8.49189 7985 ft 258 kts 281°
2026-05-05 20:24 45.24143 8.46730 7986 ft 253 kts 255°
2026-05-05 20:24 45.23412 8.44503 7988 ft 250 kts 229°
2026-05-05 20:24 45.22063 8.42978 7985 ft 249 kts 204°
2026-05-05 20:25 45.20379 8.42462 7987 ft 251 kts 178°
2026-05-05 20:25 45.18649 8.42930 7982 ft 256 kts 166°
2026-05-05 20:25 45.16934 8.43557 7980 ft 252 kts 166°
2026-05-05 20:25 45.15237 8.44172 7982 ft 252 kts 167°
2026-05-05 20:26 45.13531 8.44783 7975 ft 252 kts 167°
2026-05-05 20:26 45.11853 8.45443 7973 ft 251 kts 158°
2026-05-05 20:26 45.10423 8.46868 7967 ft 257 kts 132°
2026-05-05 20:26 45.09595 8.49068 7968 ft 261 kts 104°
2026-05-05 20:27 45.09585 8.51637 7968 ft 266 kts 76°
2026-05-05 20:27 45.10446 8.53946 7966 ft 269 kts 47°
2026-05-05 20:27 45.11986 8.55420 7966 ft 270 kts 18°
2026-05-05 20:27 45.13834 8.55695 7967 ft 269 kts 348°
2026-05-05 20:28 45.15649 8.55085 7984 ft 268 kts 343°
2026-05-05 20:28 45.17444 8.54408 7984 ft 267 kts 343°
2026-05-05 20:28 45.19241 8.53737 7986 ft 267 kts 343°
2026-05-05 20:28 45.21041 8.53081 7989 ft 267 kts 343°
2026-05-05 20:29 45.22718 8.52041 7989 ft 263 kts 319°
2026-05-05 20:29 45.23858 8.50066 7987 ft 259 kts 291°
2026-05-05 20:29 45.24210 8.47606 7989 ft 255 kts 264°
2026-05-05 20:29 45.23750 8.45257 7988 ft 251 kts 238°
2026-05-05 20:30 45.22596 8.43439 7987 ft 249 kts 213°
2026-05-05 20:30 45.20990 8.42540 7988 ft 251 kts 187°
2026-05-05 20:30 45.19256 8.42736 7987 ft 253 kts 166°
2026-05-05 20:30 45.17556 8.43361 7984 ft 252 kts 166°
2026-05-05 20:31 45.15856 8.43983 7980 ft 252 kts 167°
2026-05-05 20:31 45.14155 8.44592 7979 ft 252 kts 167°
2026-05-05 20:31 45.12459 8.45194 7979 ft 251 kts 166°
2026-05-05 20:31 45.10891 8.46274 7969 ft 255 kts 141°
2026-05-05 20:32 45.09813 8.48261 7968 ft 260 kts 114°
2026-05-05 20:32 45.09505 8.50747 7969 ft 264 kts 86°
2026-05-05 20:32 45.10072 8.53217 7970 ft 268 kts 57°
2026-05-05 20:32 45.11408 8.55032 7955 ft 268 kts 28°
2026-05-05 20:33 45.13159 8.55734 7892 ft 259 kts 358°
2026-05-05 20:33 45.14916 8.55350 7658 ft 254 kts 344°
2026-05-05 20:33 45.16624 8.54722 7348 ft 253 kts 343°
2026-05-05 20:33 45.18327 8.54104 7040 ft 252 kts 345°
2026-05-05 20:34 45.20029 8.53537 6734 ft 251 kts 346°
2026-05-05 20:34 45.21732 8.53012 6435 ft 250 kts 347°
2026-05-05 20:34 45.23430 8.52511 6144 ft 247 kts 347°
2026-05-05 20:34 45.25105 8.52028 6047 ft 249 kts 347°
2026-05-05 20:35 45.26808 8.51537 6001 ft 248 kts 347°
2026-05-05 20:35 45.28495 8.51050 6002 ft 248 kts 347°
2026-05-05 20:35 45.30190 8.50593 6004 ft 249 kts 354°
2026-05-05 20:35 45.31877 8.50961 6001 ft 247 kts 25°
2026-05-05 20:36 45.33199 8.52436 6003 ft 241 kts 56°
2026-05-05 20:36 45.33836 8.54597 5995 ft 243 kts 80°
2026-05-05 20:36 45.34094 8.56978 5998 ft 244 kts 85°
2026-05-05 20:36 45.34293 8.59373 6005 ft 244 kts 85°
2026-05-05 20:37 45.34525 8.61762 6003 ft 244 kts 84°
2026-05-05 20:37 45.34388 8.64122 6005 ft 241 kts 114°
2026-05-05 20:37 45.33445 8.66016 6000 ft 233 kts 144°
2026-05-05 20:37 45.32039 8.66906 5999 ft 214 kts 171°
2026-05-05 20:38 45.30595 8.67272 6002 ft 211 kts 171°
2026-05-05 20:38 45.29149 8.67660 5996 ft 212 kts 170°
2026-05-05 20:38 45.27702 8.68058 6001 ft 212 kts 170°
2026-05-05 20:38 45.26257 8.68458 6000 ft 212 kts 170°
2026-05-05 20:39 45.24814 8.68858 5997 ft 211 kts 170°
2026-05-05 20:39 45.23388 8.69252 5995 ft 212 kts 170°
2026-05-05 20:39 45.21943 8.69651 5997 ft 212 kts 170°
2026-05-05 20:39 45.20498 8.70048 5996 ft 211 kts 170°
2026-05-05 20:40 45.19057 8.70445 5973 ft 211 kts 170°
2026-05-05 20:40 45.17610 8.70842 5975 ft 212 kts 170°
2026-05-05 20:40 45.16167 8.71239 5973 ft 211 kts 170°
2026-05-05 20:40 45.14723 8.71637 5970 ft 212 kts 170°
2026-05-05 20:41 45.13277 8.72035 5973 ft 211 kts 170°
2026-05-05 20:41 45.11837 8.72431 5972 ft 211 kts 170°
2026-05-05 20:41 45.10397 8.72827 5932 ft 209 kts 170°
2026-05-05 20:41 45.08970 8.73219 5681 ft 209 kts 170°
2026-05-05 20:42 45.07545 8.73609 5368 ft 209 kts 170°
2026-05-05 20:42 45.06162 8.74176 5088 ft 207 kts 149°
2026-05-05 20:42 45.05230 8.75664 5008 ft 216 kts 115°
2026-05-05 20:42 45.05045 8.77770 4976 ft 220 kts 80°
2026-05-05 20:43 45.05734 8.79694 4977 ft 226 kts 45°
2026-05-05 20:43 45.07081 8.80796 4974 ft 227 kts 11°
2026-05-05 20:43 45.08656 8.81054 4966 ft 228 kts
2026-05-05 20:43 45.10232 8.81160 4973 ft 226 kts 358°
2026-05-05 20:44 45.11808 8.81064 4975 ft 227 kts 355°
2026-05-05 20:44 45.13374 8.80902 4971 ft 226 kts 354°
2026-05-05 20:44 45.14945 8.80744 4973 ft 226 kts 355°
2026-05-05 20:44 45.16516 8.80609 4974 ft 226 kts 355°
2026-05-05 20:45 45.19658 8.80378 4979 ft 226 kts 356°
2026-05-05 20:45 45.21210 8.80272 4977 ft 226 kts 356°
2026-05-05 20:45 45.22799 8.80163 4969 ft 225 kts 356°
2026-05-05 20:46 45.24346 8.80056 4991 ft 226 kts 356°
2026-05-05 20:46 45.25913 8.79947 4990 ft 225 kts 356°
2026-05-05 20:46 45.27478 8.79840 5000 ft 226 kts 356°
2026-05-05 20:46 45.29041 8.79730 4972 ft 223 kts 356°
2026-05-05 20:47 45.30588 8.79622 4732 ft 222 kts 356°
2026-05-05 20:47 45.32131 8.79512 4434 ft 222 kts 356°
2026-05-05 20:47 45.33664 8.79404 4146 ft 219 kts 357°
2026-05-05 20:47 45.35160 8.79299 4022 ft 209 kts 357°
2026-05-05 20:48 45.36547 8.79202 3990 ft 190 kts 357°
2026-05-05 20:48 45.37834 8.79112 4004 ft 188 kts 357°
2026-05-05 20:48 45.39140 8.79020 3996 ft 186 kts 357°
2026-05-05 20:48 45.40448 8.78928 3997 ft 186 kts 357°
2026-05-05 20:49 45.41725 8.78843 3996 ft 186 kts 358°
2026-05-05 20:49 45.43018 8.78738 3995 ft 185 kts 354°
2026-05-05 20:49 45.44294 8.78498 4006 ft 187 kts 351°
2026-05-05 20:49 45.45574 8.78174 3931 ft 187 kts 349°
2026-05-05 20:50 45.46832 8.77829 3704 ft 185 kts 349°
2026-05-05 20:50 45.48089 8.77483 3469 ft 184 kts 349°
2026-05-05 20:50 45.49344 8.77137 3225 ft 183 kts 349°
2026-05-05 20:50 45.50615 8.76787 2984 ft 184 kts 349°
2026-05-05 20:51 45.51847 8.76446 2740 ft 181 kts 350°
2026-05-05 20:51 45.53064 8.76109 2487 ft 176 kts 350°
2026-05-05 20:51 45.54251 8.75783 2257 ft 173 kts 350°
2026-05-05 20:51 45.55419 8.75459 2023 ft 168 kts 350°
2026-05-05 20:52 45.56520 8.75153 1810 ft 154 kts 351°
2026-05-05 20:52 45.57537 8.74872 1571 ft 144 kts 350°
2026-05-05 20:52 45.58494 8.74608 1366 ft 143 kts 349°
2026-05-05 20:52 45.59524 8.74324 1313 ft 165 kts 349°
2026-05-05 20:53 45.60673 8.74011 1138 ft 160 kts 349°
2026-05-05 20:53 45.61727 8.73708 810 ft 149 kts 348°
2026-05-05 20:53 45.62670 8.73446 728 ft 127 kts 348°
2026-05-05 20:53 45.63192 8.73300 730 ft 54 kts 348°
2026-05-05 20:54 45.63529 8.73207 744 ft 37 kts 348°
2026-05-05 20:54 45.63733 8.73052 746 ft 29 kts 319°
2026-05-05 20:54 45.63773 8.72993 747 ft 0 kts 309°
2026-05-05 20:54 45.63778 8.72984 746 ft 4 kts 308°
2026-05-05 20:55 45.63819 8.72906 745 ft 2 kts 306°
2026-05-05 20:55 45.63832 8.72877 746 ft 5 kts 303°
2026-05-05 20:55 45.63855 8.72827 747 ft 8 kts 303°
2026-05-05 20:55 45.63898 8.72735 748 ft 14 kts 304°
2026-05-05 20:56 45.63953 8.72601 747 ft 16 kts 282°
2026-05-05 20:56 45.63954 8.72555 751 ft 4 kts 269°
2026-05-05 20:56 45.63944 8.72450 753 ft 12 kts 261°
2026-05-05 20:56 45.63941 8.72425 754 ft 0 kts 261°
2026-05-05 20:57 45.63940 8.72418 754 ft 4 kts 258°
2026-05-05 20:57 45.63926 8.72330 756 ft 12 kts 259°
2026-05-05 20:57 45.63916 8.72225 757 ft 13 kts 265°
2026-05-05 20:57 45.63913 8.72159 754 ft 0 kts 266°
2026-05-05 20:58 45.63913 8.72158 754 ft 1 kts 266°
2026-05-05 20:58 45.63911 8.72110 753 ft 9 kts 267°
2026-05-05 20:58 45.63907 8.72008 753 ft 10 kts 265°
2026-05-05 20:58 45.63898 8.71908 760 ft 10 kts 255°
2026-05-05 20:59 45.63853 8.71836 760 ft 11 kts 204°
2026-05-05 20:59 45.63763 8.71836 757 ft 16 kts 170°
2026-05-05 20:59 45.63655 8.71867 752 ft 11 kts 171°
2026-05-05 20:59 45.63644 8.71869 753 ft 5 kts 170°
2026-05-05 21:00 45.63567 8.71886 753 ft 9 kts 176°
2026-05-05 21:00 45.63517 8.71897 752 ft 5 kts 170°
2026-05-05 21:00 45.63481 8.71908 749 ft 0 kts 167°
2026-05-05 21:00 45.63462 8.71914 746 ft 0 kts 169°
2026-05-05 21:01 45.63452 8.71907 748 ft 4 kts 213°
2026-05-05 21:01 45.63418 8.71845 747 ft 11 kts 218°
2026-05-05 21:01 45.63411 8.71839 747 ft 0 kts 208°
2026-05-05 21:04 45.63391 8.71833 745 ft 6 kts 183°
2026-05-05 21:05 45.63323 8.71849 745 ft 8 kts 167°
2026-05-05 21:05 45.63255 8.71873 743 ft 12 kts 167°
2026-05-05 21:05 45.63162 8.71900 741 ft 16 kts 169°
2026-05-05 21:05 45.63080 8.71920 740 ft 10 kts 171°
2026-05-05 21:06 45.63036 8.71928 740 ft 1 kts 173°
2026-05-05 21:06 45.63035 8.71928 740 ft 0 kts 172°
2026-05-05 21:06 45.63028 8.71930 738 ft 3 kts 170°
2026-05-05 21:07 45.62997 8.71987 739 ft 8 kts 109°
2026-05-05 21:07 45.62954 8.72051 738 ft 11 kts 158°
2026-05-05 21:07 45.62906 8.72070 737 ft 1 kts 167°
2026-05-05 21:07 45.62887 8.72076 736 ft 2 kts 167°
2026-05-05 21:08 45.62856 8.72087 733 ft 0 kts 168°
2026-05-05 21:08 45.62812 8.72100 734 ft 9 kts 170°
2026-05-05 21:08 45.62758 8.72115 733 ft 12 kts 168°
2026-05-05 21:08 45.62645 8.72146 730 ft 20 kts 170°
2026-05-05 21:09 45.62501 8.72185 727 ft 21 kts 168°
2026-05-05 21:09 45.62392 8.72190 724 ft 5 kts 216°
2026-05-05 21:09 45.62372 8.72145 726 ft 6 kts 251°
2026-05-05 21:09 45.62360 8.72075 725 ft 9 kts 257°
2026-05-05 21:10 45.62350 8.71969 727 ft 12 kts 277°
2026-05-05 21:10 45.62387 8.71912 729 ft 7 kts 329°
2026-05-05 21:10 45.62400 8.71902 729 ft 0 kts 336°
2026-05-05 21:10 45.62421 8.71895 730 ft 8 kts 348°
2026-05-05 21:11 45.62447 8.71887 730 ft 0 kts 351°
2026-05-05 21:11 45.62464 8.71884 731 ft 11 kts 351°
2026-05-05 21:11 45.62508 8.71873 732 ft 1 kts 351°
2026-05-05 21:12 45.62521 8.71878 732 ft 3 kts 30°
2026-05-05 21:12 45.62551 8.71928 731 ft 9 kts 70°
2026-05-05 21:12 45.62558 8.71970 730 ft 0 kts 77°